www.pogodaiklimat.ru

Погода и климат >> Архив погоды >> Мексика >> Тулансинго


ПОГОДА в Тулансинго

  • Прогноз погоды в Тулансинго
  • Монитор погоды в Тулансинго

АРХИВ ПОГОДЫ в Тулансинго

Время (UTC), дата Ветер
(напр.,м/с)
 
Видим.   Явления Облачность Т
(С)
Тd
(С)
f
(%)
Тe
(С)
Тes
(С)
Комфортность P
(гПа)
Po
(гПа)
Тmin
(С)
Tmax
(С)
R
(мм)
R24
(мм)
S
(см)
12 14.01 ЮВ 1 5000 м дымка {туман} 10/10 300 м
[Frnb]
+8.8 +8.1 95 +8 +8 1024.7 790.0 +8.0 +17.8
15 14.01 ЮВ 1 18 км мгла {туман} 9/4 450 м
[Sc diur, vesp Ci]
+10.2 +8.2 87 +10 +12 1026.3 790.9
18 14.01 ЮВ 1 20 км мгла {туман} 3/1 800 м
[Cu med, cong Ci]
+17.2 +8.3 56 +18 +31 опасность
простуды
1024.2 790.2 +8.0 +18.0
21 14.01 В 3 20 км мгла 6/3 800 м
[Cu med, cong Ac cast Ci]
+16.6 +9.4 62 +16 +20 1020.3 788.5
00 15.01 В 4 20 км мгла 5/1 600 м
[Cu med, cong Ac cast Ci]
+12.6 +7.7 72 +11 +11 1019.1 788.5 +8.0 +18.0
03 15.01 В 4 20 км мгла 5/1 600 м
[Cu med, cong Ac cast Ci]
+12.6 +7.7 72 +11 +11 1019.1 788.5 +8.0 +18.0
12 15.01 штиль 0 18 км {туман} ясно +4.7 +2.2 84 +4 +4 1024.7 788.5 +4.0 +18.0
15 15.01 ЮЗ 1 20 км мгла {туман} 3/0 2000 м
[Ac trans Ci]
+7.2 +3.1 75 +6 +10 1027.1 789.4
18 15.01 ЮЗ 1 20 км мгла {туман} 8/0 2000 м
[Ac trans Ci]
+19.4 +6.7 44 +21 +33 комфорт 1024.8 788.9 +3.5 +20.3
21 15.01 В 4 20 км мгла 9/0 2000 м
[Ac cast Cs]
+17.2 +9.7 61 +17 +21 1019.5 787.0
00 16.01 В 4 20 км мгла 9/0 2000 м
[Ac cast Cs]
+17.2 +9.7 61 +17 +17 1019.5 787.0
03 16.01 ЮВ 1 5000 м туман ?/? +9.6 +8.6 93 +9 +9 1018.8 789.2
12 16.01 штиль 0 20 км {туман} ясно +7.8 +5.7 87 +7 +7 1023.6 788.3 +7.0 +21.5
15 16.01 ЮЗ 1 20 км мгла {туман} 9/0
[Ci]
+10.8 +6.4 74 +11 +14 1025.3 789.4
18 16.01 ЮЗ 1 20 км мгла {туман} 9/1 800 м
[Cu med, cong Ci]
+21.0 +9.6 48 +24 +35 комфорт 1022.4 788.9 +6.0 +21.8
21 16.01 В 3 20 км мгла 9/0 2000 м
[Ac cast Ci]
+20.0 +10.2 53 +22 +27 комфорт 1016.5 786.5
00 17.01 В 4 18 км мгла 9/1 300 м
[St Ac cast Ci]
+13.2 +10.1 81 +11 +11 1015.8 787.3 +6.0 +22.5
03 17.01 СЗ 1 10 км туман 9/6 600 м
[St Ac trans]
+10.6 +8.6 87 +10 +10 1017.8 789.3
15 17.01 СЗ 1 18 км мгла {туман} 10/0
[As op]
+7.8 +5.0 82 +7 +8 1025.5 789.1
18 17.01 ЮЗ 1 20 км мгла {туман} 9/1 800 м
[Cu med, cong Ac trans Cs]
+18.9 +9.4 54 +21 +28 комфорт 1023.9 788.9 +5.5 +19.7
21 17.01 В 3 20 км мгла 8/1 800 м
[Cu med, cong Ac cast Ci]
+20.2 +10.5 54 +22 +26 комфорт 1018.0 786.4
00 18.01 В 4 15 км мгла 9/1 300 м
[St Ac cast Ci]
+13.8 +10.0 78 +12 +12 1016.5 787.0 +5.5 +22.0
03 18.01 штиль 0 15 км мгла 10/1 600 м
[St Ac trans Cs]
+11.0 +9.1 88 +10 +10 1017.1 788.3
12 18.01 СВ 1 500 м туман ?/? +5.8 +5.8 100 +4 +4 1021.4 786.7 +4.3
15 18.01 ЮВ 1 18 км {туман} 4/1 90 м
[Cb calv Ac cuf Ci]
+7.6 +6.4 92 +7 +10 1014.1 787.9
18 18.01 ЮВ 2 20 км мгла 6/1 600 м
[Cu hum Ci]
+21.0 +10.7 52 +24 +34 комфорт 1020.8 786.7 +4.3 +22.0
21 18.01 СВ 1 18 км мгла 10/5 600 м
[Cu med, cong Ci fib]
+21.5 +11.9 54 +24 +27 комфорт 1014.1 784.1
00 19.01 СВ 1 18 км мгла 6/4 600 м
[Sc diur, vesp Ac trans]
+17.9 +10.0 60 +19 +19 1011.1 784.0 +4.3 +23.6
03 19.01 ЮЗ 1 18 км слаб. дождь 10/0
[As op]
+15.2 +10.6 74 +16 +16 1012.0 786.3 0.1
12 19.01 С 1 18 км мгла 6/0
[Ci]
+10.8 +8.2 84 +10 +10 785.0 +9.5 +23.6

 

Местоположение метеостанции Тулансинго (Мексика): широта 20.08 долгота -98.37 высота над уровнем моря 2181 м.

В архиве по умолчанию представлена погода в Тулансинго за последнюю неделю. Архивные данные за месяц целиком и за предыдущие месяцы, начиная с января 2011 года, Вы можете получить, выбрав интересующий диапазон дат из раскрывающегося списка и нажав кнопку "Ввод!".


*Определитесь, кто Вы:
робот инопланетянин человек

Внимание! Время в таблицах - всемирное. Для получения местного времени необходимо прибавить поправку, которая равна -6 ч.

Смотрите также архив погоды в соседних городах и на ближайших метеорологических станциях:

Погода в Пачуке (Мексика) (40 км)
Погода в Тлашкале (Мексика) (85 км)
Погода в Тлашкала аэропорту (Мексика) (87 км)
Погода в Мехико (Мексика) (114 км)
Погода в Пуэбле (Мексика) (117 км)
Погода в Институте Географии (Мексика) (120 км)
Погода в Туспане (Мексика) (140 км)
Погода в Маталапе (Мексика) (145 км)
Погода в Куэрнаваке (Мексика) (161 км)
Погода в Толуке (Мексика) (164 км)

Пояснения к столбцам:

Ветер - указаны скорость ветра в м/с - средняя за 10 мин, порывы в срок и между сроками (в фигурных скобках) и направление, откуда дует ветер: С - северный, СВ - северо-восточный, В - восточный, ЮВ - юго-восточный, Ю - южный, ЮЗ - юго-западный, З - западный, СЗ - северо-западный.
Видимость - горизонтальная дальность видимости в метрах или километрах. При видимости от 1 до 10 км при отсутствии осадков обычно наблюдается дымка, при ухудшении видимости до 1 км и менее - туман. В сухую погоду видимость может ухудшаться дымом, пылью или мглою.
Явления - указаны атмосферные явления, наблюдавшиеся в срок или в последний час перед сроком; фигурными скобками обозначены явления, наблюдавшиеся между сроками (за 1-3 часа до срока); квадратными скобками обозначены град или гололедные отложения с указанием их диаметра в мм.
Облачность - указаны через наклонную черту общая и нижняя облачность в баллах и высота нижней границы облаков в метрах; квадратными скобками обозначены формы облаков: Ci - перистые, Cs - перисто-слоистые, Cc - перисто-кучевые, Ac - высококучевые, As - высокослоистые, Sc - слоисто-кучевые, Ns - слоисто-дождевые, Cu - кучевые, Cb - кучево-дождевые. Подробнее классификацию облаков см. в Атласе облаков (PDF).
T - Температура воздуха - температура, измеренная на высоте 2 м над землей.
Td - Температура точки росы - температура, при понижении до которой содержащийся в воздухе водяной пар достигнет насыщения.
f - Относительная влажность воздуха - влажноcть воздуха, измеренная на высоте 2 м над землей.
Te - Эффективная температура - температура, которую ощущает одетый по сезону человек в тени. Характеристика душности погоды. При расчете учитывается влияние влажности воздуха и скорости ветра на теплоощущения человека.
Tes - Эффективная температура на солнце - температура, которую ощущает человек, с поправкой на солнечный нагрев. Характеристика знойности погоды. Зависит от высоты солнца над горизонтом, облачности и скорости ветра. Ночью, в пасмурную погоду, а также при ветре 12 м/с и более поправка равна нулю.
P - Атмосферное давление - приведенное к уровню моря атмосферное давление.
Po - Атмосферное давление - измеренное на уровне метеостанции атмосферное давление.
Tmin - Минимальная температура - минимум температуры воздуха на высоте 2 м над землей.
Tmax - Максимальная температура - максимум температуры воздуха на высоте 2 м над землей.
R - Количество осадков - Количество выпавших осадков за период времени, мм. При наведении курсора мыши на число - период времени, за который выпало указанное количество осадков.
R24 - Количество осадков - Количество выпавших осадков за 24 часа, мм.
S - Снежный покров - Высота снежного покрова, см. При наведении курсора мыши на число - состояние снежного покрова и степень покрытия местности в баллах.